Preview of NWS' New Version of Forecast
This preview is not operational and should not be used for support decisions.

Regional Weather Roundup (RWR)

Issued by National Weather Service (NWS)

                            
000
ASUS42 KTBW 181716
RWRFL 
FLORIDA REGIONAL WEATHER ROUNDUP
NATIONAL WEATHER SERVICE TAMPA BAY RUSKIN FL
100 PM EDT THU APR 18 2019

NOTE: "FAIR" INDICATES FEW OR NO CLOUDS BELOW 12,000 FEET WITH NO
SIGNIFICANT WEATHER AND/OR OBSTRUCTIONS TO VISIBILITY.

FLZ001>010-012>015-112-114-115-181800-
PANHANDLE FLORIDA
  
CITY           SKY/WX    TMP DP  RH WIND       PRES   REMARKS
PENSACOLA      CLOUDY    74  69  85 SE15      29.91F                  
PENSACOLA NAS  CLOUDY    73  69  87 E16       29.90F                  
MILTON NAS     PTSUNNY   77  65  66 S17       29.92F                  
CRESTVIEW      CLOUDY    77  61  57 S12G17    29.95F                  
DUKE FIELD     FAIR      78  63  58 S15G24    29.93F                  
MARY ESTHER    PTSUNNY   75  67  75 SE5G17    29.92F                  
PANAMA CITY    FAIR      79  66  64 SE15      29.96F                  
TYNDALL AFB    FAIR      78  68  72 S20G26    29.95F                  
APALACHICOLA   FAIR      77  67  71 SE16      29.98F                  

STATION/POSITION SKY/WX   TEMP    WIND        PRES    WAVE   SWELL
                          AIR SEA DIR/SP/G            HT/PER HT/PER
                          (F)     (DEG/KT/KT) (MB)    (FT/S) (FT/S)
30.1N   87.6W                                 1012.5F   4/ 6   3/ 6
29.2N   88.2W                     150/ 17/ 23 1010.7F   6/ 6
PANAMA CITY BEAC           72 72  140/ 13/ 14 1014.9F
TOWER C          NOT AVBL

$$
FLZ011-016>038-118-127-128-134-139-239-181800-
NORTH FLORIDA
  
CITY           SKY/WX    TMP DP  RH WIND       PRES   REMARKS
MARIANNA       FAIR      82  63  52 S15       29.94F                  
TALLAHASSEE    PTSUNNY   81  63  54 S17G25    29.98S                  
PERRY          PTSUNNY   82  62  51 S9        30.00F                  
LIVE OAK       MOSUNNY   81  59  47 VRB7      30.00F                  
CROSS CITY     PTSUNNY   82  62  51 S12       30.00F                  
LAKE CITY      FAIR      79  59  50 S6G16     30.01F                  
GAINESVILLE    CLOUDY    82  62  50 S8        30.03F                  
PALATKA        FAIR      82  59  44 SW10G21   30.01F                  
MAYPORT NAS    PTSUNNY   80  65  59 SE14      30.01F                  
JACKSONVILLE   PTSUNNY   83  59  44 S12G23    30.00F                  
JAX NAS        PTSUNNY   82  59  45 S15       30.01F                  
JAX CECIL      PTSUNNY   84  59  42 S9G22     30.01F                  
FERNANDINA BEA FAIR      79  65  62 SE15G21   30.02F                  
ST AUGUSTINE   PTSUNNY   80  67  64 SE18      30.02F                  
PALM COAST     PTSUNNY   82  61  47 S12G20    30.01F                  

STATION/POSITION SKY/WX   TEMP    WIND        PRES    WAVE   SWELL
                          AIR SEA DIR/SP/G            HT/PER HT/PER
                          (F)     (DEG/KT/KT) (MB)    (FT/S) (FT/S)
SHELL POINT      NOT AVBL
KEATON BEACH               74     150/ 13/ 15 1016.1F
CEDAR KEY                  74     170/ 12/ 13 1016.7R
FERNANDINA                 80 71  140/  9/ 14 1017.1F
30.7N   81.3W                 71                N/A     2/ 9
MAYPORT                    77 70  130/ 12/ 18 1016.6F
31.4N   80.9W              70 69  170/  4/  4 1017.4F   2/ 9   2/ 9
ST AUGUSTINE               74 72  140/ 12/ 13 1016.6F

$$
FLZ040-043>046-052-053-057-058-063-144-181800-
INTERIOR CENTRAL FLORIDA
  
CITY           SKY/WX    TMP DP  RH WIND       PRES   REMARKS
OCALA          FAIR      82  61  48 S12       30.01F                  
LEESBURG       FAIR      82  62  50 S10       30.02S                  
SANFORD        FAIR      84  64  50 S12       30.01F                  
ORLANDO EXEC   PTSUNNY   84  64  50 S15G21    30.01F                  
ORLANDO INTL   FAIR      86  64  47 SE14G22   30.01F                  
KISSIMMEE      PTSUNNY   84  66  54 S13       30.02F                  
WINTER HAVEN   FAIR      86  64  47 S14       30.01F                  
LAKELAND       MOSUNNY   84  64  51 S15       30.00F                  
BARTOW         PTSUNNY   86  64  48 S13G21    29.99F                  
SEBRING        PTSUNNY   84  68  57 S12       30.00F                  
OKEECHOBEE     FAIR      86  68  54 SE9       30.00F                  

$$
FLZ041-047-054-059-064-141-147-181800-
EAST CENTRAL FLORIDA
  
CITY           SKY/WX    TMP DP  RH WIND       PRES   REMARKS
ORMOND BEACH   MOSUNNY   82  61  47 SE15G24   30.01F                  
DAYTONA BEACH  FAIR      84  64  50 S12       30.01F                  
DELAND         PTSUNNY   82  61  47 S18       30.01F                  
NEW SMYRNA BEA MOSUNNY   82  66  57 SE15      30.02F                  
TITUSVILLE     PTSUNNY   82  68  61 SE17      30.03F                  
MELBOURNE      FAIR      82  70  66 SE20G26   30.02F                  
VERO BEACH     FAIR      84  70  62 SE22G28   30.01F                  
FT PIERCE      PTSUNNY   84  70  62 SE21G29   30.01F                  
STUART         PTSUNNY   82  70  65 SE17G28   30.03F                  

STATION/POSITION SKY/WX   TEMP    WIND        PRES    WAVE   SWELL
                          AIR SEA DIR/SP/G            HT/PER HT/PER
                          (F)     (DEG/KT/KT) (MB)    (FT/S) (FT/S)
28.5N   80.2W              77     140/ 14/ 16 1017.5F   3/ 8   2/ 8
28.9N   78.5W              76 77  130/ 17/ 21 1018.5F   4/ 8   2/ 8
TRIDENT PIER               80 77  130/ 11/ 15 1018.1F
28.4N   80.5W                 77                N/A     3/ 4
27.5N   80.2W                 76                N/A     4/ 5

$$
FLZ050-056-061-142-242-148-248-149-249-151-251-155-255-
160-260-181800-
WEST CENTRAL FLORIDA
  
CITY           SKY/WX    TMP DP  RH WIND       PRES   REMARKS
CRYSTAL RIVER  FAIR      84  59  42 SE7       30.00F                  
INVERNESS      FAIR      82  61  47 S9        30.01F                  
BROOKSVILLE    FAIR      84  62  47 S10G18    30.01F                  
CLEARWATER AIR FAIR      82  64  54 S8        29.98F                  
ST PETE CLEARW FAIR      83  66  56 SE12G23   29.98F                  
TAMPA INTL     FAIR      84  67  56 S12       29.99F                  
TAMPA EXEC     PTSUNNY   84  66  54 S8        29.99F                  
PLANT CITY     FAIR      86  64  48 S13G18    30.02S                  
PETER O KNIGHT FAIR      86  70  58 S8        29.99F                  
ST PETERSBURG  FAIR      84  68  58 S9        29.96F                  
SARASOTA       FAIR      86  67  52 S16       29.96F                  
VENICE         FAIR      86  72  62 S15G22    29.98F                  

STATION/POSITION SKY/WX   TEMP    WIND        PRES    WAVE   SWELL
                          AIR SEA DIR/SP/G            HT/PER HT/PER
                          (F)     (DEG/KT/KT) (MB)    (FT/S) (FT/S)
27.3N   84.2W                 75                N/A     4/ 5
CLEARWATER BEACH           80 77  160/ 14/ 18 1015.5F
MIDDLE TAMPA BAY           81     200/  9/ 11 1015.3F
VENICE                     79 78  160/ 13/ 13 1015.1F

$$
FLZ066-069-070-075>078-162-262-165-265-181800-
SOUTHWEST FLORIDA AND KEYS
  
CITY           SKY/WX    TMP DP  RH WIND       PRES   REMARKS
PUNTA GORDA    PTSUNNY   86  66  51 SE12G18   29.99F                  
FT MYERS       FAIR      85  66  53 SE13      29.96F                  
SOUTHWEST INTL PTSUNNY   85  67  54 S15       29.98F                  
NAPLES         FAIR      87  70  56 SE14      29.97F                  
MARCO ISLAND   FAIR      86  71  60 S15       29.99F                  
IMMOKALEE      PTSUNNY   90  70  51 S12       29.96F HX  95           
MARATHON       FAIR      87  73  62 SE14G20   29.98F                  
KEY WEST NAS   FAIR      86  70  58 SE16      29.97F                  
KEY WEST INTL  FAIR      83  71  67 SE15      29.97F                  

STATION/POSITION SKY/WX   TEMP    WIND        PRES    WAVE   SWELL
                          AIR SEA DIR/SP/G            HT/PER HT/PER
                          (F)     (DEG/KT/KT) (MB)    (FT/S) (FT/S)
NAPLES                     84 80  150/  6/ 17 1015.0F
DRY TORTUGAS               80     140/ 17/ 18 1014.5F
SAND KEY                   79                 1014.9F
SOMBRERO KEY               80                 1014.5F

$$
FLZ067-068-071>074-168-172>174-181800-
SOUTHEAST FLORIDA 
  
CITY           SKY/WX    TMP DP  RH WIND       PRES   REMARKS
W PALM BEACH   PTSUNNY   84  70  62 SE22      30.02F                  
BOCA RATON     MOSUNNY   86  72  62 SE21      30.02                   
FT LAUDER-EXEC PTSUNNY   84  69  60 SE14G24   30.00F                  
FT LAUDERDALE  FAIR      84  71  65 SE22G28   30.00F                  
POMPANO BEACH  FAIR      87  70  56 SE15      30.01F                  
PEMBROKE PINES PTSUNNY   84  70  62 SE14      30.01F                  
OPA LOCKA      PTSUNNY   86  71  60 SE15G26   30.01F                  
MIAMI          PTSUNNY   83  71  67 SE22      30.00F                  
WEST KENDALL   PTSUNNY   86  70  58 SE18G25   30.00F                  
HOMESTEAD      PTSUNNY   85  72  65 E15G24    29.99F                  

STATION/POSITION SKY/WX   TEMP    WIND        PRES    WAVE   SWELL
                          AIR SEA DIR/SP/G            HT/PER HT/PER
                          (F)     (DEG/KT/KT) (MB)    (FT/S) (FT/S)
PORT EVERGLADES            81     130/ 11/ 15 1016.6F
VIRGINIA KEY               81 81  110/ 11/ 17 1015.6F
LAKE WORTH                 78 79  140/ 17/ 19 1017.6F
SETTLEMENT POINT           80     160/ 15/ 18 1017.0F

$$